Change the Weather History Date:

Friday, November 30, 2012

  Actual Average Record
Temperature  
Mean Temperature 53 °F 39 °F  
Max Temperature 64 °F 49 °F 71 °F (1995)
Min Temperature 41 °F 29 °F 7 °F (1976)
Degree Days  
Heating Degree Days 12 26  
Month to date heating degree days 466 561  
Since 1 July heating degree days 792 852  
Cooling Degree Days 0 0  
Month to date cooling degree days 4 3  
Year to date cooling degree days 2006 1532  
Growing Degree Days 2 (Base 50)    
Moisture  
Dew Point 44 °F    
Average Humidity 80    
Maximum Humidity 100    
Minimum Humidity 60    
Precipitation  
Precipitation 0.00 in 0.07 in 1.47 in (1981)
Month to date precipitation 1.34 2.50  
Year to date precipitation 31.62 40.32  
Sea Level Pressure  
Sea Level Pressure 30.04 in    
Wind  
Wind Speed 8 mph (South)    
Max Wind Speed 15 mph    
Max Gust Speed 20 mph    
Visibility 8 miles    
Events      
T = Trace of Precipitation, MM = Missing Value Source: NWS Daily Summary

Daily Weather History Graph

Daily Weather History Graph

Search for Another Location

Airport or City:

Trip Planner

Search our weather history database for the weather conditions in past years. The results will help you decide how hot, cold, wet, or windy it might be!

Date:

Astronomy

Nov. 30, 2012 Rise Set
Actual Time 7:17 AM CST 5:03 PM CST
Civil Twilight 6:48 AM CST 5:32 PM CST
Nautical Twilight 6:16 AM CST 6:04 PM CST
Astronomical Twilight 5:44 AM CST 6:36 PM CST
Moon 6:59 PM CST (11/30) 8:50 AM CST (11/30)
Length of Visible Light 10h 43m
Length of Day
9h 45m
Waning Gibbous, 96% of the Moon is Illuminated
Nov 30
Waning Gibbous
Dec 6
Last Quarter
Dec 13
New
Dec 19
First Quarter
Dec 28
Full

Hourly Weather History & Observations

Time (CST) Temp. Windchill Dew Point Humidity Pressure Visibility Wind Dir Wind Speed Gust Speed Precip Events Conditions
12:52 AM 46.0 °F 40.6 °F 35.1 °F 66% 30.06 in 10.0 mi South 11.5 mph - N/A   Clear
1:52 AM 46.0 °F 41.4 °F 35.1 °F 66% 30.06 in 10.0 mi South 9.2 mph - N/A   Clear
2:52 AM 46.0 °F 41.0 °F 34.0 °F 63% 30.06 in 10.0 mi South 10.4 mph - N/A   Clear
3:52 AM 46.0 °F 40.6 °F 34.0 °F 63% 30.05 in 10.0 mi South 11.5 mph - N/A   Clear
4:52 AM 46.0 °F 40.2 °F 34.0 °F 63% 30.05 in 10.0 mi South 12.7 mph - N/A   Clear
5:52 AM 44.1 °F 40.8 °F 34.0 °F 68% 30.07 in 10.0 mi South 5.8 mph - N/A   Clear
6:52 AM 42.1 °F 37.7 °F 34.0 °F 73% 30.09 in 10.0 mi South 6.9 mph - N/A   Clear
7:52 AM 44.1 °F 41.5 °F 36.0 °F 73% 30.10 in 10.0 mi South 4.6 mph - N/A   Clear
8:52 AM 48.9 °F - 39.0 °F 69% 30.10 in 10.0 mi South 8.1 mph - N/A   Clear
9:52 AM 53.1 °F - 42.1 °F 66% 30.11 in 10.0 mi SSW 9.2 mph - N/A   Clear
10:52 AM 57.0 °F - 45.0 °F 64% 30.10 in 10.0 mi SW 10.4 mph - N/A   Clear
11:52 AM 59.0 °F - 46.0 °F 62% 30.07 in 10.0 mi South 8.1 mph - N/A   Clear
12:52 PM 60.1 °F - 48.0 °F 64% 30.05 in 10.0 mi South 4.6 mph - N/A   Clear
1:52 PM 62.1 °F - 48.0 °F 60% 30.02 in 10.0 mi South 6.9 mph - N/A   Clear
2:52 PM 63.0 °F - 50.0 °F 63% 30.02 in 10.0 mi South 8.1 mph - N/A   Clear
3:52 PM 62.1 °F - 50.0 °F 65% 30.03 in 10.0 mi South 9.2 mph - N/A   Clear
4:52 PM 59.0 °F - 50.0 °F 72% 30.02 in 10.0 mi SSE 3.5 mph - N/A   Clear
5:52 PM 53.1 °F - 48.0 °F 83% 30.01 in 10.0 mi South 8.1 mph - N/A   Clear
6:52 PM 50.0 °F - 48.0 °F 93% 30.02 in 7.0 mi South 5.8 mph - N/A   Clear
7:52 PM 48.9 °F - 46.9 °F 93% 30.03 in 4.0 mi Calm Calm - N/A   Partly Cloudy
8:38 PM 48.2 °F - 48.2 °F 100% 30.02 in 2.0 mi South 3.5 mph - N/A   Partly Cloudy
8:52 PM 48.0 °F - 48.0 °F 100% 30.02 in 2.5 mi North - - N/A   Clear
9:13 PM 46.4 °F 45.2 °F 44.6 °F 93% 30.02 in 1.2 mi SSE 3.5 mph - N/A   Scattered Clouds
9:18 PM 48.2 °F - 46.4 °F 93% 30.02 in 1.5 mi SSE 4.6 mph - N/A   Mostly Cloudy
9:27 PM 50.0 °F - 50.0 °F 100% 30.02 in 2.5 mi SSE 3.5 mph - N/A   Mostly Cloudy
9:39 PM 51.8 °F - 50.0 °F 94% 30.02 in 3.0 mi South 4.6 mph - N/A   Overcast
9:52 PM 52.0 °F - 51.1 °F 97% 30.02 in 3.0 mi SSE 6.9 mph - N/A   Overcast
10:52 PM 54.0 °F - 52.0 °F 93% 30.01 in 5.0 mi SSE 8.1 mph - N/A   Overcast
11:52 PM 55.9 °F - 53.1 °F 90% 29.99 in 7.0 mi SSW 12.7 mph - N/A   Scattered Clouds